| time (UTC) | temp F | wind direction | speed MPH | gust MPH | rain 1hr in | rain 24hr in | rain mn in | humidity % | barometer mb |
| 20260906225009 | 78 | 295 | 0.0 | 0.0 | 0.00 | 0.00 | 0.00 | 52 | 1014.8 |
| 20260906223851 | 79 | 295 | 0.0 | 0.0 | 0.00 | 0.00 | 0.00 | 52 | 1014.9 |
| 20260906223339 | 79 | 295 | 0.0 | 0.0 | 0.00 | 0.00 | 0.00 | 52 | 1014.9 |
| 20260906222835 | 79 | 295 | 0.0 | 0.0 | 0.00 | 0.00 | 0.00 | 52 | 1014.9 |
| 20260906222317 | 79 | 295 | 0.0 | 2.0 | 0.00 | 0.00 | 0.00 | 52 | 1014.9 |
| 20260906221207 | 80 | 288 | 0.0 | 0.0 | 0.00 | 0.00 | 0.00 | 52 | 1014.8 |
| 20260906220716 | 80 | 288 | 0.0 | 0.0 | 0.00 | 0.00 | 0.00 | 51 | 1014.8 |
| 20260906220204 | 80 | 288 | 0.0 | 4.0 | 0.00 | 0.00 | 0.00 | 51 | 1014.8 |
| 20260906215705 | 80 | 282 | 0.0 | 1.0 | 0.00 | 0.00 | 0.00 | 51 | 1014.7 |
| 20260906215146 | 80 | 11 | 0.0 | 0.0 | 0.00 | 0.00 | 0.00 | 52 | 1014.7 |
| 20260906214632 | 80 | 11 | 0.0 | 0.0 | 0.00 | 0.00 | 0.00 | 52 | 1014.6 |
| 20260906214133 | 80 | 350 | 0.0 | 6.0 | 0.00 | 0.00 | 0.00 | 51 | 1014.6 |
| 20260906213639 | 80 | 19 | 0.0 | 3.0 | 0.00 | 0.00 | 0.00 | 52 | 1014.6 |
| 20260906213125 | 80 | 109 | 0.0 | 3.0 | 0.00 | 0.00 | 0.00 | 52 | 1014.6 |
| 20260906212616 | 80 | 309 | 0.0 | 0.0 | 0.00 | 0.00 | 0.00 | 52 | 1014.6 |
| 20260906212125 | 80 | 298 | 0.0 | 3.0 | 0.00 | 0.00 | 0.00 | 52 | 1014.7 |
| 20260906211614 | 80 | 236 | 0.0 | 3.0 | 0.00 | 0.00 | 0.00 | 52 | 1014.7 |
| 20260906205838 | 80 | 268 | 0.0 | 6.0 | 0.00 | 0.00 | 0.00 | 51 | 1014.6 |
| 20260906205322 | 80 | 290 | 0.0 | 7.0 | 0.00 | 0.00 | 0.00 | 52 | 1014.5 |
| 20260906204810 | 80 | 9 | 0.0 | 7.0 | 0.00 | 0.00 | 0.00 | 53 | 1014.5 |
| 20260906204259 | 79 | 246 | 0.0 | 7.0 | 0.00 | 0.00 | 0.00 | 52 | 1014.3 |
| 20260906203123 | 79 | 281 | 0.0 | 6.0 | 0.00 | 0.00 | 0.00 | 52 | 1014.4 |
| 20260906202613 | 79 | 269 | 0.0 | 4.0 | 0.00 | 0.00 | 0.00 | 52 | 1014.4 |
| 20260906202107 | 79 | 288 | 0.0 | 2.0 | 0.00 | 0.00 | 0.00 | 52 | 1014.4 |
| 20260906201548 | 79 | 5 | 0.0 | 1.0 | 0.00 | 0.00 | 0.00 | 52 | 1014.4 |
| 20260906201039 | 79 | 284 | 0.0 | 2.0 | 0.00 | 0.00 | 0.00 | 53 | 1014.4 |
| 20260906200543 | 79 | 259 | 0.0 | 0.0 | 0.00 | 0.00 | 0.00 | 53 | 1014.4 |
| 20260906200039 | 80 | 259 | 0.0 | 5.0 | 0.00 | 0.00 | 0.00 | 52 | 1014.5 |
| 20260906195535 | 80 | 270 | 0.0 | 5.0 | 0.00 | 0.00 | 0.00 | 52 | 1014.4 |
| 20260906195037 | 80 | 283 | 0.0 | 5.0 | 0.00 | 0.00 | 0.00 | 51 | 1014.4 |
| 20260906194526 | 80 | 344 | 0.0 | 3.0 | 0.00 | 0.00 | 0.00 | 52 | 1014.4 |
| 20260906193413 | 80 | 280 | 0.0 | 2.0 | 0.00 | 0.00 | 0.00 | 52 | 1014.4 |
| 20260906192854 | 80 | 257 | 0.0 | 2.0 | 0.00 | 0.00 | 0.00 | 53 | 1014.5 |
| 20260906192401 | 80 | 355 | 0.0 | 5.0 | 0.00 | 0.00 | 0.00 | 52 | 1014.5 |
| 20260906191902 | 80 | 300 | 0.0 | 5.0 | 0.00 | 0.00 | 0.00 | 51 | 1014.4 |
| 20260906191357 | 80 | 305 | 0.0 | 0.0 | 0.00 | 0.00 | 0.00 | 52 | 1014.4 |
| 20260906190229 | 80 | 281 | 0.0 | 2.0 | 0.00 | 0.00 | 0.00 | 51 | 1014.5 |
| 20260906185732 | 79 | 62 | 0.0 | 3.0 | 0.00 | 0.00 | 0.00 | 51 | 1014.5 |
| 20260906185226 | 79 | 273 | 0.0 | 0.0 | 0.00 | 0.00 | 0.00 | 52 | 1014.5 |
| 20260906184717 | 80 | 273 | 0.0 | 3.0 | 0.00 | 0.00 | 0.00 | 51 | 1014.7 |
| 20260906184157 | 80 | 34 | 0.0 | 6.0 | 0.00 | 0.00 | 0.00 | 51 | 1014.6 |
| 20260906183657 | 80 | 296 | 0.0 | 6.0 | 0.00 | 0.00 | 0.00 | 50 | 1014.5 |
| 20260906181904 | 80 | 52 | 0.0 | 3.0 | 0.00 | 0.00 | 0.00 | 51 | 1014.5 |
| 20260906180733 | 79 | 348 | 0.0 | 1.0 | 0.00 | 0.00 | 0.00 | 51 | 1014.6 |
| 20260906180242 | 79 | 15 | 0.0 | 5.0 | 0.00 | 0.00 | 0.00 | 51 | 1014.7 |
| 20260906175726 | 79 | 296 | 0.0 | 2.0 | 0.00 | 0.00 | 0.00 | 51 | 1014.6 |
| 20260906173950 | 78 | 284 | 0.0 | 0.0 | 0.00 | 0.00 | 0.00 | 51 | 1014.8 |
| 20260906173459 | 78 | 284 | 0.0 | 5.0 | 0.00 | 0.00 | 0.00 | 50 | 1014.9 |
| 20260906173003 | 79 | 288 | 0.0 | 1.0 | 0.00 | 0.00 | 0.00 | 48 | 1014.8 |
| 20260906172503 | 78 | 288 | 0.0 | 0.0 | 0.00 | 0.00 | 0.00 | 51 | 1015.0 |
| 20260906171952 | 79 | 263 | 0.0 | 0.0 | 0.00 | 0.00 | 0.00 | 51 | 1015.0 |
| 20260906171442 | 79 | 203 | 0.0 | 3.0 | 0.00 | 0.00 | 0.00 | 50 | 1015.0 |
| 20260906165645 | 79 | 350 | 0.0 | 1.0 | 0.00 | 0.00 | 0.00 | 49 | 1015.2 |
| 20260906165140 | 79 | 355 | 0.0 | 5.0 | 0.00 | 0.00 | 0.00 | 50 | 1015.2 |
| 20260906164631 | 80 | 278 | 0.0 | 5.0 | 0.00 | 0.00 | 0.00 | 49 | 1015.2 |
| 20260906163445 | 79 | 270 | 0.0 | 5.0 | 0.00 | 0.00 | 0.00 | 49 | 1015.2 |
| 20260906162950 | 79 | 275 | 0.0 | 5.0 | 0.00 | 0.00 | 0.00 | 45 | 1015.2 |
| 20260906162434 | 78 | 270 | 1.0 | 0.0 | 0.00 | 0.00 | 0.00 | 46 | 1015.2 |
| 20260906161918 | 78 | 290 | 0.0 | 5.0 | 0.00 | 0.00 | 0.00 | 48 | 1015.3 |
| 20260906160125 | 78 | 271 | 1.0 | 6.0 | 0.00 | 0.00 | 0.00 | 47 | 1015.3 |
| 20260906155630 | 78 | 288 | 1.0 | 6.0 | 0.00 | 0.00 | 0.00 | 46 | 1015.3 |
| 20260906155124 | 78 | 302 | 0.0 | 6.0 | 0.00 | 0.00 | 0.00 | 47 | 1015.4 |
| 20260906154612 | 77 | 5 | 0.0 | 1.0 | 0.00 | 0.00 | 0.00 | 45 | 1015.4 |
| 20260906154102 | 77 | 5 | 0.0 | 6.0 | 0.00 | 0.00 | 0.00 | 44 | 1015.4 |
| 20260906153558 | 77 | 9 | 0.0 | 6.0 | 0.00 | 0.00 | 0.00 | 44 | 1015.3 |
| 20260906153059 | 77 | 308 | 0.0 | 6.0 | 0.00 | 0.00 | 0.00 | 45 | 1015.4 |
| 20260906152553 | 77 | 121 | 0.0 | 3.0 | 0.00 | 0.00 | 0.00 | 42 | 1015.3 |
| 20260906150811 | 76 | 298 | 0.0 | 3.0 | 0.00 | 0.00 | 0.00 | 27 | 1015.4 |
| 20260906150257 | 76 | 75 | 0.0 | 2.0 | 0.00 | 0.00 | 0.00 | 25 | 1015.4 |
| 20260906145804 | 75 | 79 | 0.0 | 3.0 | 0.00 | 0.00 | 0.00 | 29 | 1015.4 |
| 20260906145255 | 75 | 80 | 0.0 | 3.0 | 0.00 | 0.00 | 0.00 | 26 | 1015.3 |
| 20260906144747 | 75 | 58 | 0.0 | 3.0 | 0.00 | 0.00 | 0.00 | 7 | 1015.3 |
| 20260906144242 | 74 | 281 | 0.0 | 3.0 | 0.00 | 0.00 | 0.00 | 1 | 1015.3 |
| 20260906142448 | 72 | 63 | 0.0 | 3.0 | 0.00 | 0.00 | 0.00 | 1 | 1015.1 |
| 20260906141930 | 71 | 63 | 0.0 | 3.0 | 0.00 | 0.00 | 0.00 | 1 | 1015.2 |
| 20260906141419 | 70 | 64 | 0.0 | 3.0 | 0.00 | 0.00 | 0.00 | 1 | 1015.3 |
| 20260906140905 | 69 | 76 | 0.0 | 4.0 | 0.00 | 0.00 | 0.00 | 1 | 1015.3 |
| 20260906140347 | 68 | 265 | 0.0 | 2.0 | 0.00 | 0.00 | 0.00 | 1 | 1015.2 |
| 20260906135850 | 68 | 308 | 0.0 | 2.0 | 0.00 | 0.00 | 0.00 | 1 | 1015.2 |
| 20260906135359 | 68 | 74 | 0.0 | 4.0 | 0.00 | 0.00 | 0.00 | 1 | 1015.1 |
| 20260906134842 | 68 | 252 | 0.0 | 2.0 | 0.00 | 0.00 | 0.00 | 1 | 1015.1 |
| 20260906134339 | 67 | 252 | 0.0 | 2.0 | 0.00 | 0.00 | 0.00 | 1 | 1015.0 |
| 20260906133821 | 67 | 292 | 0.0 | 5.0 | 0.00 | 0.00 | 0.00 | 1 | 1015.0 |
| 20260906132024 | 66 | 355 | 0.0 | 4.0 | 0.00 | 0.00 | 0.00 | 1 | 1015.0 |
| 20260906131507 | 66 | 5 | 0.0 | 3.0 | 0.00 | 0.00 | 0.00 | 1 | 1015.1 |
| 20260906130316 | 65 | 346 | 0.0 | 1.0 | 0.00 | 0.00 | 0.00 | 1 | 1015.0 |
| 20260906125813 | 64 | 346 | 0.0 | 1.0 | 0.00 | 0.00 | 0.00 | 1 | 1015.0 |
| 20260906125306 | 64 | 348 | 0.0 | 1.0 | 0.00 | 0.00 | 0.00 | 1 | 1015.0 |
| 20260906124813 | 64 | 344 | 0.0 | 0.0 | 0.00 | 0.00 | 0.00 | 1 | 1014.9 |
| 20260906123644 | 63 | 345 | 0.0 | 0.0 | 0.00 | 0.00 | 0.00 | 1 | 1014.9 |
| 20260906123125 | 62 | 345 | 0.0 | 0.0 | 0.00 | 0.00 | 0.00 | 1 | 1014.8 |
| 20260906122613 | 62 | 345 | 0.0 | 0.0 | 0.00 | 0.00 | 0.00 | 1 | 1014.6 |
| 20260906122106 | 62 | 345 | 0.0 | 0.0 | 0.00 | 0.00 | 0.00 | 1 | 1014.6 |
| 20260906121552 | 62 | 345 | 0.0 | 0.0 | 0.00 | 0.00 | 0.00 | 1 | 1014.6 |
| 20260906121037 | 62 | 345 | 0.0 | 0.0 | 0.00 | 0.00 | 0.00 | 1 | 1014.5 |
| 20260906120529 | 61 | 345 | 0.0 | 0.0 | 0.00 | 0.00 | 0.00 | 1 | 1014.4 |
| 20260906120019 | 61 | 345 | 0.0 | 0.0 | 0.00 | 0.00 | 0.00 | 1 | 1014.5 |
| 20260906115526 | 61 | 345 | 0.0 | 0.0 | 0.00 | 0.00 | 0.00 | 1 | 1014.4 |
| 20260906113722 | 60 | 355 | 0.0 | 0.0 | 0.00 | 0.00 | 0.00 | 1 | 1014.3 |
| 20260906113206 | 60 | 355 | 0.0 | 0.0 | 0.00 | 0.00 | 0.00 | 1 | 1014.2 |
| 20260906112716 | 60 | 355 | 0.0 | 0.0 | 0.00 | 0.00 | 0.00 | 1 | 1014.1 |
| 20260906112223 | 60 | 355 | 0.0 | 0.0 | 0.00 | 0.00 | 0.00 | 1 | 1014.1 |
| 20260906111719 | 60 | 355 | 0.0 | 0.0 | 0.00 | 0.00 | 0.00 | 1 | 1014.1 |
| 20260906111228 | 60 | 355 | 0.0 | 0.0 | 0.00 | 0.00 | 0.00 | 1 | 1014.1 |
| 20260906110114 | 60 | 355 | 0.0 | 0.0 | 0.00 | 0.00 | 0.00 | 1 | 1013.8 |
| 20260906105559 | 60 | 355 | 0.0 | 0.0 | 0.00 | 0.00 | 0.00 | 1 | 1013.9 |
| 20260906105101 | 60 | 355 | 0.0 | 0.0 | 0.00 | 0.00 | 0.00 | 1 | 1013.8 |
| 20260906104608 | 60 | 355 | 0.0 | 0.0 | 0.00 | 0.00 | 0.00 | 1 | 1013.8 |
| 20260906104101 | 60 | 355 | 0.0 | 0.0 | 0.00 | 0.00 | 0.00 | 1 | 1013.7 |
| 20260906103608 | 60 | 355 | 0.0 | 0.0 | 0.00 | 0.00 | 0.00 | 1 | 1013.6 |
| 20260906103108 | 60 | 355 | 0.0 | 0.0 | 0.00 | 0.00 | 0.00 | 1 | 1013.5 |
| 20260906102603 | 60 | 355 | 0.0 | 0.0 | 0.00 | 0.00 | 0.00 | 1 | 1013.4 |
| 20260906101431 | 60 | 349 | 0.0 | 0.0 | 0.00 | 0.00 | 0.00 | 1 | 1013.2 |
| 20260906100921 | 60 | 349 | 0.0 | 0.0 | 0.00 | 0.00 | 0.00 | 1 | 1013.2 |
| 20260906100420 | 61 | 349 | 0.0 | 0.0 | 0.00 | 0.00 | 0.00 | 1 | 1013.3 |
| 20260906095918 | 61 | 349 | 0.0 | 0.0 | 0.00 | 0.00 | 0.00 | 1 | 1013.2 |
| 20260906094727 | 61 | 349 | 0.0 | 0.0 | 0.00 | 0.00 | 0.00 | 1 | 1013.0 |
| 20260906093612 | 61 | 349 | 0.0 | 0.0 | 0.00 | 0.00 | 0.00 | 1 | 1013.0 |
| 20260906093115 | 61 | 349 | 0.0 | 0.0 | 0.00 | 0.00 | 0.00 | 1 | 1012.9 |
| 20260906092602 | 61 | 349 | 0.0 | 0.0 | 0.00 | 0.00 | 0.00 | 1 | 1012.9 |
| 20260906092105 | 61 | 349 | 0.0 | 0.0 | 0.00 | 0.00 | 0.00 | 1 | 1012.9 |
| 20260906091601 | 61 | 350 | 0.0 | 0.0 | 0.00 | 0.00 | 0.00 | 1 | 1012.8 |
| 20260906091056 | 61 | 350 | 0.0 | 0.0 | 0.00 | 0.00 | 0.00 | 1 | 1012.6 |
| 20260906090603 | 61 | 349 | 0.0 | 0.0 | 0.00 | 0.00 | 0.00 | 1 | 1012.6 |
| 20260906090046 | 61 | 349 | 0.0 | 0.0 | 0.00 | 0.00 | 0.00 | 1 | 1012.5 |
| 20260906085537 | 61 | 349 | 0.0 | 0.0 | 0.00 | 0.00 | 0.00 | 1 | 1012.5 |
| 20260906085026 | 61 | 349 | 0.0 | 0.0 | 0.00 | 0.00 | 0.00 | 1 | 1012.5 |
| 20260906084530 | 61 | 349 | 0.0 | 0.0 | 0.00 | 0.00 | 0.00 | 1 | 1012.5 |
| 20260906084031 | 61 | 349 | 0.0 | 0.0 | 0.00 | 0.00 | 0.00 | 1 | 1012.4 |
| 20260906083512 | 61 | 349 | 0.0 | 0.0 | 0.00 | 0.00 | 0.00 | 1 | 1012.5 |
| 20260906083000 | 61 | 349 | 0.0 | 0.0 | 0.00 | 0.00 | 0.00 | 1 | 1012.5 |
| 20260906082500 | 61 | 349 | 0.0 | 0.0 | 0.00 | 0.00 | 0.00 | 1 | 1012.5 |
| 20260906081956 | 62 | 349 | 0.0 | 0.0 | 0.00 | 0.00 | 0.00 | 1 | 1012.6 |
| 20260906081445 | 61 | 349 | 0.0 | 0.0 | 0.00 | 0.00 | 0.00 | 1 | 1012.5 |
| 20260906080949 | 61 | 349 | 0.0 | 0.0 | 0.00 | 0.00 | 0.00 | 1 | 1012.5 |
| 20260906080450 | 61 | 349 | 0.0 | 0.0 | 0.00 | 0.00 | 0.00 | 1 | 1012.4 |
| 20260906075939 | 61 | 349 | 0.0 | 0.0 | 0.00 | 0.00 | 0.00 | 1 | 1012.3 |
| 20260906074757 | 61 | 349 | 0.0 | 0.0 | 0.00 | 0.00 | 0.00 | 1 | 1012.3 |
| 20260906074304 | 61 | 349 | 0.0 | 0.0 | 0.00 | 0.00 | 0.00 | 1 | 1012.2 |
| 20260906073746 | 62 | 349 | 0.0 | 0.0 | 0.00 | 0.00 | 0.00 | 1 | 1012.2 |
| 20260906073244 | 62 | 349 | 0.0 | 0.0 | 0.00 | 0.00 | 0.00 | 1 | 1012.2 |
| 20260906072731 | 62 | 349 | 0.0 | 0.0 | 0.00 | 0.00 | 0.00 | 1 | 1012.2 |
| 20260906072231 | 62 | 349 | 0.0 | 0.0 | 0.00 | 0.00 | 0.00 | 1 | 1012.2 |
| 20260906071053 | 61 | 349 | 0.0 | 0.0 | 0.00 | 0.00 | 0.00 | 1 | 1012.1 |
| 20260906070604 | 62 | 349 | 0.0 | 0.0 | 0.00 | 0.00 | 0.00 | 1 | 1012.1 |
| 20260906070104 | 62 | 349 | 0.0 | 0.0 | 0.00 | 0.00 | 0.00 | 1 | 1012.1 |
| 20260906065547 | 62 | 349 | 0.0 | 0.0 | 0.00 | 0.00 | 0.00 | 1 | 1012.1 |
| 20260906065035 | 62 | 349 | 0.0 | 0.0 | 0.00 | 0.00 | 0.00 | 1 | 1012.1 |
| 20260906064531 | 62 | 349 | 0.0 | 0.0 | 0.00 | 0.00 | 0.00 | 1 | 1012.1 |
| 20260906064013 | 62 | 349 | 0.0 | 0.0 | 0.00 | 0.00 | 0.00 | 1 | 1012.1 |
| 20260906062904 | 62 | 349 | 0.0 | 0.0 | 0.00 | 0.00 | 0.00 | 1 | 1012.2 |
| 20260906062401 | 62 | 349 | 0.0 | 0.0 | 0.00 | 0.00 | 0.00 | 1 | 1012.3 |
| 20260906061844 | 62 | 349 | 0.0 | 0.0 | 0.00 | 0.00 | 0.00 | 1 | 1012.4 |
| 20260906061347 | 62 | 349 | 0.0 | 0.0 | 0.00 | 0.00 | 0.00 | 1 | 1012.3 |
| 20260906060235 | 62 | 349 | 0.0 | 0.0 | 0.00 | 0.00 | 0.00 | 1 | 1012.2 |
| 20260906055727 | 62 | 350 | 0.0 | 0.0 | 0.00 | 0.00 | 0.00 | 1 | 1012.2 |
| 20260906055235 | 62 | 350 | 0.0 | 0.0 | 0.00 | 0.00 | 0.00 | 1 | 1012.2 |
| 20260906054721 | 62 | 349 | 0.0 | 0.0 | 0.00 | 0.00 | 0.00 | 1 | 1012.2 |
| 20260906052947 | 62 | 350 | 0.0 | 0.0 | 0.00 | 0.00 | 0.00 | 1 | 1012.3 |
| 20260906052432 | 62 | 350 | 0.0 | 0.0 | 0.00 | 0.00 | 0.00 | 1 | 1012.3 |
| 20260906051928 | 62 | 350 | 0.0 | 0.0 | 0.00 | 0.00 | 0.00 | 1 | 1012.4 |
| 20260906051410 | 62 | 350 | 0.0 | 0.0 | 0.00 | 0.00 | 0.00 | 1 | 1012.4 |
| 20260906050901 | 62 | 350 | 0.0 | 0.0 | 0.00 | 0.00 | 0.00 | 1 | 1012.5 |
| 20260906050356 | 62 | 350 | 0.0 | 0.0 | 0.00 | 0.00 | 0.00 | 1 | 1012.5 |
| 20260906045902 | 62 | 349 | 0.0 | 0.0 | 0.00 | 0.00 | 0.00 | 1 | 1012.6 |
| 20260906045354 | 62 | 350 | 0.0 | 0.0 | 0.00 | 0.00 | 0.00 | 1 | 1012.5 |
| 20260906044902 | 62 | 350 | 0.0 | 0.0 | 0.00 | 0.00 | 0.00 | 1 | 1012.6 |
| 20260906044349 | 62 | 350 | 0.0 | 0.0 | 0.00 | 0.00 | 0.00 | 1 | 1012.6 |
| 20260906041956 | 63 | 350 | 0.0 | 0.0 | 0.00 | 0.00 | 0.00 | 1 | 1012.5 |
| 20260906041453 | 63 | 349 | 0.0 | 0.0 | 0.00 | 0.00 | 0.00 | 1 | 1012.6 |
| 20260906040941 | 63 | 349 | 0.0 | 0.0 | 0.00 | 0.00 | 0.00 | 1 | 1012.6 |
| 20260906040428 | 63 | 350 | 0.0 | 0.0 | 0.00 | 0.00 | 0.00 | 1 | 1012.5 |
| 20260906035920 | 63 | 349 | 0.0 | 0.0 | 0.00 | 0.00 | 0.00 | 1 | 1012.5 |
| 20260906035408 | 63 | 350 | 0.0 | 0.0 | 0.00 | 0.00 | 0.00 | 1 | 1012.5 |
| 20260906034915 | 63 | 350 | 0.0 | 0.0 | 0.00 | 0.00 | 0.00 | 1 | 1012.6 |
| 20260906034401 | 63 | 350 | 0.0 | 0.0 | 0.00 | 0.00 | 0.00 | 1 | 1012.6 |
| 20260906033907 | 63 | 350 | 0.0 | 0.0 | 0.00 | 0.00 | 0.00 | 1 | 1012.6 |
| 20260906033408 | 63 | 349 | 0.0 | 0.0 | 0.00 | 0.00 | 0.00 | 1 | 1012.6 |
| 20260906032855 | 63 | 350 | 0.0 | 0.0 | 0.00 | 0.00 | 0.00 | 1 | 1012.6 |
| 20260906032348 | 63 | 349 | 0.0 | 0.0 | 0.00 | 0.00 | 0.00 | 1 | 1012.6 |
| 20260906031843 | 64 | 350 | 0.0 | 0.0 | 0.00 | 0.00 | 0.00 | 1 | 1012.6 |
| 20260906030731 | 64 | 350 | 0.0 | 0.0 | 0.00 | 0.00 | 0.00 | 1 | 1012.4 |
| 20260906030212 | 64 | 350 | 0.0 | 0.0 | 0.00 | 0.00 | 0.00 | 1 | 1012.4 |
| 20260906025038 | 64 | 350 | 0.0 | 0.0 | 0.00 | 0.00 | 0.00 | 1 | 1012.4 |
| 20260906024535 | 65 | 350 | 0.0 | 0.0 | 0.00 | 0.00 | 0.00 | 1 | 1012.4 |
| 20260906024025 | 65 | 349 | 0.0 | 0.0 | 0.00 | 0.00 | 0.00 | 1 | 1012.3 |
| 20260906023507 | 65 | 349 | 0.0 | 0.0 | 0.00 | 0.00 | 0.00 | 1 | 1012.3 |
| 20260906022955 | 65 | 349 | 0.0 | 0.0 | 0.00 | 0.00 | 0.00 | 1 | 1012.4 |
| 20260906022436 | 65 | 349 | 0.0 | 0.0 | 0.00 | 0.00 | 0.00 | 1 | 1012.3 |
| 20260906021934 | 66 | 349 | 0.0 | 0.0 | 0.00 | 0.00 | 0.00 | 1 | 1012.3 |
| 20260906021429 | 66 | 350 | 0.0 | 0.0 | 0.00 | 0.00 | 0.00 | 1 | 1012.3 |
| 20260906020302 | 66 | 350 | 0.0 | 0.0 | 0.00 | 0.00 | 0.00 | 1 | 1012.2 |
| 20260906015756 | 67 | 349 | 0.0 | 0.0 | 0.00 | 0.00 | 0.00 | 1 | 1012.1 |
| 20260906015258 | 67 | 350 | 0.0 | 0.0 | 0.00 | 0.00 | 0.00 | 1 | 1012.0 |
| 20260906014745 | 67 | 349 | 0.0 | 0.0 | 0.00 | 0.00 | 0.00 | 1 | 1011.9 |
| 20260906014233 | 67 | 350 | 0.0 | 0.0 | 0.00 | 0.00 | 0.00 | 1 | 1011.9 |
| 20260906013737 | 67 | 349 | 0.0 | 0.0 | 0.00 | 0.00 | 0.00 | 1 | 1011.8 |
| 20260906013239 | 68 | 350 | 0.0 | 0.0 | 0.00 | 0.00 | 0.00 | 1 | 1011.8 |
| 20260906012737 | 68 | 350 | 0.0 | 0.0 | 0.00 | 0.00 | 0.00 | 1 | 1011.8 |
| 20260906011607 | 68 | 349 | 0.0 | 0.0 | 0.00 | 0.00 | 0.00 | 1 | 1011.8 |
| 20260906011112 | 69 | 349 | 0.0 | 0.0 | 0.00 | 0.00 | 0.00 | 1 | 1011.7 |
| 20260906010600 | 69 | 350 | 0.0 | 0.0 | 0.00 | 0.00 | 0.00 | 1 | 1011.5 |
| 20260906010105 | 69 | 350 | 0.0 | 0.0 | 0.00 | 0.00 | 0.00 | 1 | 1011.6 |
| 20260906005553 | 69 | 350 | 0.0 | 0.0 | 0.00 | 0.00 | 0.00 | 1 | 1011.6 |
| 20260906005045 | 70 | 349 | 0.0 | 0.0 | 0.00 | 0.00 | 0.00 | 1 | 1011.5 |
| 20260906004534 | 70 | 349 | 0.0 | 0.0 | 0.00 | 0.00 | 0.00 | 1 | 1011.4 |
| 20260906004029 | 70 | 349 | 0.0 | 0.0 | 0.00 | 0.00 | 0.00 | 1 | 1011.4 |
| 20260906003538 | 70 | 349 | 0.0 | 0.0 | 0.00 | 0.00 | 0.00 | 1 | 1011.4 |
| 20260906003038 | 71 | 350 | 0.0 | 0.0 | 0.00 | 0.00 | 0.00 | 1 | 1011.4 |
| 20260906002547 | 71 | 350 | 0.0 | 0.0 | 0.00 | 0.00 | 0.00 | 1 | 1011.4 |
| 20260906002037 | 72 | 350 | 0.0 | 0.0 | 0.00 | 0.00 | 0.00 | 1 | 1011.4 |
| 20260906001526 | 72 | 349 | 0.0 | 0.0 | 0.00 | 0.00 | 0.00 | 1 | 1011.2 |
| 20260906001006 | 72 | 349 | 0.0 | 0.0 | 0.00 | 0.00 | 0.00 | 2 | 1011.2 |
| 20260906000451 | 73 | 349 | 0.0 | 0.0 | 0.00 | 0.00 | 0.00 | 6 | 1011.2 |
| 20260905235306 | 74 | 349 | 0.0 | 0.0 | 0.00 | 0.00 | 0.00 | 23 | 1011.0 |
| 20260905234801 | 74 | 350 | 0.0 | 0.0 | 0.00 | 0.00 | 0.00 | 27 | 1010.9 |
| 20260905234309 | 75 | 350 | 0.0 | 0.0 | 0.00 | 0.00 | 0.00 | 29 | 1010.9 |
| 20260905233140 | 76 | 349 | 0.0 | 0.0 | 0.00 | 0.00 | 0.00 | 38 | 1010.8 |
| 20260905232631 | 77 | 349 | 0.0 | 0.0 | 0.00 | 0.00 | 0.00 | 42 | 1010.8 |
| 20260905232137 | 77 | 349 | 0.0 | 0.0 | 0.00 | 0.00 | 0.00 | 45 | 1010.8 |
| 20260905231633 | 78 | 349 | 0.0 | 0.0 | 0.00 | 0.00 | 0.00 | 46 | 1010.6 |
| 20260905231120 | 78 | 349 | 0.0 | 0.0 | 0.00 | 0.00 | 0.00 | 46 | 1010.6 |
| 20260905230612 | 78 | 349 | 0.0 | 0.0 | 0.00 | 0.00 | 0.00 | 46 | 1010.6 |
| 20260905230119 | 78 | 349 | 0.0 | 0.0 | 0.00 | 0.00 | 0.00 | 47 | 1010.6 |